FW1323 Weather Reports


Display with metric or nautical units.
time (UTC)temp
F
wind
direction
speed
MPH
gust
MPH
rain 1hr
in
rain 24hr
in
rain mn
in
humidity
%
barometer
mb
20260509033053 54 315 1.0 4.0 0.03 0.04 0.04 94 1008.8
20260509031552 54 345 1.0 4.0 0.04 0.04 0.04 94 1008.7
20260509030051 54 346 0.0 2.0 0.03 0.03 0.03 93 1008.9
20260509024550 54 346 1.0 5.0 0.02 0.02 0.02 93 1008.8
20260509023049 54 341 1.0 4.0 0.01 0.01 0.01 92 1008.9
20260509021549 54 296 1.0 9.0 0.00 0.00 0.00 91 1009.2
20260509020048 55 327 3.0 9.0 0.00 0.00 0.00 90 1009.2
20260509014546 55 321 4.0 9.0 0.00 0.00 0.00 88 1009.0
20260509013058 56 311 6.0 10.0 0.00 0.00 0.00 85 1009.0
20260509011545 57 324 4.0 9.0 0.00 0.00 0.00 83 1008.7
20260509010044 57 3 2.0 6.0 0.00 0.00 0.00 80 1008.1
20260509004604 58 4 2.0 4.0 0.00 0.00 0.00 79 1007.9
20260509003045 59 357 4.0 8.0 0.00 0.00 0.00 76 1008.0
20260509001542 61 324 6.0 12.0 0.00 0.00 0.00 71 1008.2
20260509000040 63 249 0.0 2.0 0.00 0.00 0.00 64 1007.9
20260508234539 63 247 0.0 2.0 0.00 0.00 0.00 63 1008.0
20260508233038 63 241 2.0 7.0 0.00 0.00 0.00 61 1007.9
20260508231538 64 230 1.0 5.0 0.00 0.00 0.00 61 1007.8
20260508230051 64 234 2.0 4.0 0.00 0.00 0.00 60 1007.7
20260508224536 64 237 2.0 4.0 0.00 0.00 0.00 60 1007.8
20260508223036 64 237 1.0 3.0 0.00 0.00 0.00 60 1007.7
20260508221537 64 238 2.0 4.0 0.00 0.00 0.00 59 1007.7
20260508220034 65 240 1.0 7.0 0.00 0.00 0.00 58 1007.7
20260508214533 66 219 1.0 7.0 0.00 0.00 0.00 55 1007.6
20260508213032 66 268 5.0 14.0 0.00 0.00 0.00 54 1007.8
20260508211534 66 252 7.0 12.0 0.00 0.00 0.00 52 1007.8
20260508210035 66 239 5.0 12.0 0.00 0.00 0.00 52 1008.0
20260508204529 66 236 5.0 9.0 0.00 0.00 0.00 52 1008.0
20260508203027 66 233 8.0 14.0 0.00 0.00 0.00 51 1008.1
20260508201525 65 230 7.0 14.0 0.00 0.00 0.00 51 1008.6
20260508200036 65 211 4.0 11.0 0.00 0.00 0.00 54 1009.1
20260508194521 65 244 6.0 10.0 0.00 0.00 0.00 53 1009.5
20260508193020 65 247 7.0 15.0 0.00 0.00 0.00 51 1009.5
20260508191518 65 248 6.0 14.0 0.00 0.00 0.00 51 1009.8
20260508190017 66 239 4.0 17.0 0.00 0.00 0.00 50 1009.9
20260508184528 66 272 8.0 20.0 0.00 0.00 0.00 47 1010.0
20260508183015 66 278 8.0 17.0 0.00 0.00 0.00 49 1010.0
20260508181527 66 214 11.0 21.0 0.00 0.00 0.00 49 1010.0
20260508180012 67 282 8.0 14.0 0.00 0.00 0.00 51 1010.4
20260508174513 65 246 9.0 17.0 0.00 0.00 0.00 54 1010.8
20260508173005 66 228 6.0 20.0 0.00 0.00 0.00 54 1011.1
20260508171501 64 197 5.0 17.0 0.00 0.00 0.00 55 1011.3
20260508170059 63 251 10.0 20.0 0.00 0.00 0.00 56 1011.7
20260508164603 63 239 7.0 16.0 0.00 0.00 0.00 56 1012.0
20260508163058 62 245 9.0 16.0 0.00 0.00 0.00 57 1012.2
20260508161553 62 232 10.0 18.0 0.00 0.00 0.00 57 1012.5
20260508160049 62 245 13.0 25.0 0.00 0.00 0.00 57 1012.6
20260508154546 61 199 14.0 23.0 0.00 0.00 0.00 57 1012.8
20260508153049 61 214 9.0 24.0 0.00 0.00 0.00 58 1012.7
20260508151549 61 213 11.0 23.0 0.00 0.00 0.00 58 1012.8
20260508150045 59 249 13.0 22.0 0.00 0.00 0.00 58 1012.9
20260508144546 59 199 9.0 18.0 0.00 0.00 0.00 59 1013.1
20260508143037 58 245 12.0 20.0 0.00 0.00 0.00 58 1013.2
20260508141534 57 248 8.0 23.0 0.00 0.00 0.00 59 1013.1
20260508140031 56 235 11.0 18.0 0.00 0.00 0.00 60 1013.5
20260508134537 55 247 10.0 21.0 0.00 0.00 0.00 60 1013.5
20260508133032 55 233 8.0 18.0 0.00 0.00 0.00 61 1013.4
20260508131523 54 189 6.0 13.0 0.00 0.00 0.00 62 1013.4
20260508130020 53 263 7.0 15.0 0.00 0.00 0.00 63 1013.4
20260508124516 52 240 5.0 17.0 0.00 0.00 0.00 64 1013.5
20260508123012 51 199 5.0 12.0 0.00 0.00 0.00 65 1013.4
20260508121511 50 243 5.0 11.0 0.00 0.00 0.00 65 1013.3
20260508120006 49 228 4.0 9.0 0.00 0.00 0.00 67 1013.1
20260508114504 48 203 4.0 9.0 0.00 0.00 0.00 68 1013.1
20260508113003 47 204 4.0 8.0 0.00 0.00 0.00 69 1013.1
20260508111505 47 208 5.0 8.0 0.00 0.00 0.00 70 1013.0
20260508104559 47 212 3.0 6.0 0.00 0.00 0.00 69 1012.9
20260508103101 47 224 3.0 8.0 0.00 0.00 0.00 68 1012.9
20260508101615 48 191 4.0 9.0 0.00 0.00 0.00 68 1012.8
20260508100056 48 203 3.0 6.0 0.00 0.00 0.00 67 1012.8
20260508094554 49 220 3.0 8.0 0.00 0.00 0.00 66 1012.8
20260508093054 49 205 4.0 8.0 0.00 0.00 0.00 66 1012.8
20260508091604 49 204 4.0 13.0 0.00 0.00 0.00 66 1012.9
20260508090108 49 218 4.0 11.0 0.00 0.00 0.00 66 1012.8
20260508084550 48 216 3.0 8.0 0.00 0.00 0.00 67 1012.8
20260508083048 48 223 4.0 9.0 0.00 0.00 0.00 67 1012.9
20260508081551 48 217 2.0 8.0 0.00 0.00 0.00 67 1013.0
20260508080147 48 245 3.0 6.0 0.00 0.00 0.00 68 1012.9
20260508074546 48 208 3.0 7.0 0.00 0.00 0.00 67 1012.9
20260508073046 48 205 3.0 8.0 0.00 0.00 0.00 68 1012.8
20260508071553 48 211 3.0 7.0 0.00 0.00 0.00 68 1013.0
20260508070044 48 198 4.0 8.0 0.00 0.00 0.00 67 1013.0
20260508064540 48 203 4.0 9.0 0.00 0.00 0.00 67 1013.1
20260508063040 48 212 5.0 8.0 0.00 0.00 0.00 67 1013.2
20260508061538 48 214 4.0 8.0 0.00 0.00 0.00 68 1013.4
20260508060036 47 205 2.0 7.0 0.00 0.00 0.00 69 1013.6
20260508054533 47 204 2.0 6.0 0.00 0.00 0.00 70 1013.7
20260508053056 47 212 2.0 5.0 0.00 0.00 0.00 70 1013.5
20260508051532 47 216 2.0 5.0 0.00 0.00 0.00 71 1013.7
20260508050033 47 197 1.0 5.0 0.00 0.00 0.00 71 1013.5
20260508044529 47 198 3.0 5.0 0.00 0.00 0.00 71 1013.6
20260508043025 47 199 3.0 5.0 0.00 0.00 0.00 72 1013.6
20260508041541 47 197 1.0 3.0 0.00 0.00 0.00 71 1013.6
20260508040025 48 201 2.0 6.0 0.00 0.00 0.00 70 1013.6
20260508034520 48 208 2.0 6.0 0.00 0.00 0.00 70 1013.7